Location: Maiden
(35.5760°N, 81.2120°W)
Time: 02:18:31
(UTC-05:00)

Daily predictions for brighter satellites

Satellite Brightness Start Highest point End
(mag) Time Altitude Azimuth Time Altitude Azimuth Time Altitude Azimuth
Cosmos 2219 Rocket 4.3 03:54:11 21° ESE 03:54:30 21° E 03:58:35 10° NE
CENTAUR R/B 3.9 03:56:32 30° ESE 03:56:32 30° ESE 04:01:35 10° NE
Cosmos 2333 Rocket 4.0 04:05:03 24° ESE 04:06:05 26° ESE 04:10:39 10° NE
CZ-4C R/B 3.3 04:13:40 53° N 04:15:21 65° NE 04:23:32 10° SE
Cosmos 1844 Rocket 3.3 04:38:53 32° N 04:41:14 54° ENE 04:46:39 10° SE
Cosmos 1553 Rocket 4.3 04:38:25 10° N 04:44:30 65° E 04:50:39 10° SSE
Cosmos 2237 Rocket 4.1 04:45:28 10° SSE 04:50:09 27° ESE 04:54:51 10° NE
ASTEX 1 4.2 04:46:04 10° NNE 04:50:48 49° E 04:55:32 10° SSE
S3M 4.1 04:58:01 10° N 05:04:26 77° E 05:10:45 10° S
PAYLOAD A 3.8 05:02:29 10° NNE 05:07:22 85° WNW 05:09:01 44° SSW
GPS 2-04 Rocket1 3.1 05:08:36 61° SE 05:08:36 61° SE 05:12:18 10° E
SL-4 R/B 3.2 05:10:00 29° NNE 05:10:00 29° NNE 05:11:49 10° NE
GPS 2-05 Rocket1 4.4 05:09:51 31° E 05:09:51 31° E 05:11:39 10° E
ATLAS 3B R/B 3.1 05:08:33 42° NW 05:08:44 42° NW 05:15:05 10° NNE
NOSS 3-3 (A) 4.5 05:04:37 17° NNW 05:10:57 85° WSW 05:19:16 10° SSE
NOSS 3-3 (C) 4.5 05:04:40 17° NNW 05:11:03 86° WSW 05:19:22 10° SSE
IDEFIX/ARIANE 42P 3.1 05:06:02 10° N 05:09:54 42° NNW 05:09:54 42° NNW
Cosmos 2360 Rocket 3.9 05:13:46 17° NNW 05:13:46 17° NNW 05:15:44 10° N
COSMOS 2441 4.3 05:07:11 10° NNE 05:12:08 88° W 05:15:27 21° SSW
COSMOS 2428 2.6 05:12:54 55° WSW 05:13:46 62° WNW 05:19:24 10° NNE
Cosmos 1503 Rocket 4.0 05:14:45 57° W 05:14:59 57° WNW 05:20:17 10° N
Cosmos 1655 Rocket 4.0 05:10:15 17° SSW 05:15:09 62° W 05:21:30 10° N
NOSS 3-2 (C) 3.9 05:15:36 37° NW 05:15:36 37° NW 05:21:32 10° NNE
OAO 3 Rocket 3.3 05:17:42 53° SSW 05:18:26 61° SSE 05:23:03 10° E
SAR-Lupe-2 3.9 05:16:27 10° SSE 05:19:15 54° SSE 05:19:15 54° SSE
CZ-4B R/B 3.4 05:18:36 10° NNE 05:23:55 71° ESE 05:29:17 10° S
Okean O Rocket 1.5 05:23:37 10° NNE 05:28:05 88° WNW 05:32:30 10° SSW
Cosmos 1933 Rocket 4.2 05:25:05 10° N 05:29:28 56° E 05:33:48 10° SSE
BREEZE-M (TANK) 3.4 05:27:05 33° WSW 05:29:45 55° NW 05:32:52 10° NE
PSLV R/B 4.1 05:30:58 33° NNE 05:30:58 33° NNE 05:33:29 10° E
Cosmos 1470 Rocket 3.5 05:27:53 10° N 05:32:13 81° E 05:36:33 10° S
Cosmos 968 Rocket 3.6 05:32:51 33° WSW 05:34:43 49° WNW 05:39:40 10° N
Cosmos 2219 Rocket 2.5 05:35:59 31° WSW 05:38:03 44° WNW 05:43:23 10° N
Cosmos 2315 Rocket 4.4 05:35:58 10° N 05:42:19 67° E 05:48:39 10° SSE
Cosmos 1515 Rocket 3.5 05:39:39 10° SSW 05:43:58 58° W 05:48:21 10° N
Cosmos 1151 Rocket 3.2 05:40:50 15° SSW 05:44:04 45° W 05:48:10 10° N
Cosmos 1356 3.2 05:41:25 10° SSW 05:44:52 76° W 05:48:20 10° N
CENTAUR R/B 2.9 05:43:46 27° W 05:46:28 40° NW 05:52:48 10° NNE
Cosmos 1980 3.6 05:41:10 10° SSW 05:46:49 85° WNW 05:52:30 10° NNE
BREEZE-M DEB (TANK) 3.2 05:50:30 15° S 05:50:30 15° S 05:51:08 10° S
Cosmos 2333 Rocket 2.7 05:47:09 23° WSW 05:50:05 38° WNW 05:55:22 10° N
Cosmos 2292 Rocket 4.2 05:47:08 10° SSE 05:50:10 43° E 05:53:51 10° NNE
Cosmos 1633 3.6 05:49:58 10° N 05:53:24 47° E 05:56:49 10° SSE
CZ-2C R/B 3.0 05:49:22 10° N 05:54:10 38° WNW 05:58:55 10° SW
USA 32 4.0 05:50:46 10° SSW 05:55:53 57° W 06:01:03 10° N
Cosmos 1844 4.1 05:51:10 10° NW 05:56:35 42° WSW 06:01:57 10° S
Cosmos 1777 Rocket 4.2 05:51:58 10° S 05:57:10 76° ESE 06:02:26 10° NNE
NOAA 6 3.9 05:54:35 10° N 05:59:45 77° WNW 06:04:52 10° SSW
COSMO-SKYMED 1 2.5 05:56:35 10° S 06:00:52 63° W 06:05:10 10° NNW
Cosmos 909 Rocket 4.3 05:55:23 10° SW 06:01:49 62° WNW 06:09:38 10° NNE
USA 116 4.3 05:56:42 10° S 06:01:53 68° WSW 06:06:40 10° NNW
CZ-4C R/B 3.9 05:58:56 16° WNW 06:03:41 27° WSW 06:10:19 10° SSW
Cosmos 2266 Rocket 4.4 06:00:21 10° SSW 06:06:04 40° WNW 06:11:56 10° N
SL-16 R/B 3.3 06:02:08 10° S 06:07:31 48° ESE 06:12:57 10° NNE
Cosmos 1633 Rocket 4.3 06:07:26 18° W 06:07:34 18° W 06:10:34 10° SW
BREEZE M DEB (TANK) 3.9 06:05:51 17° WNW 06:08:17 26° WSW 06:10:41 10° S
Cosmos 783 Rocket 4.5 06:03:48 10° NNW 06:08:56 62° WSW 06:14:05 10° S
OAO 2 Rocket 4.0 06:08:15 17° W 06:11:40 38° SSW 06:16:14 10° SE
Cosmos 1862 3.7 06:08:08 10° NNW 06:11:57 41° W 06:15:45 10° SSW
SJ-12 4.0 06:08:39 10° N 06:12:36 51° WNW 06:16:31 10° SSW
Cosmos 1933 3.2 06:09:03 10° SSW 06:13:02 72° W 06:17:04 10° N
Meteor 2-13 Rocket 4.4 06:09:38 10° SSW 06:15:42 72° W 06:21:46 10° N
Cosmos 1242 Rocket 3.8 06:14:33 10° NW 06:17:17 21° W 06:20:03 10° SW
CZ-2C R/B 4.3 06:13:46 10° SSE 06:18:13 61° ENE 06:22:38 10° N
Cosmos 2228 Rocket 4.0 06:17:14 10° SW 06:21:05 28° WNW 06:24:56 10° NNW
Okean-O 3.1 06:19:15 10° NNE 06:23:40 68° ESE 06:28:04 10° S
Cosmos 1844 Rocket 4.0 06:21:06 10° WNW 06:24:35 17° W 06:28:03 10° SW
Cosmos 2278 Rocket 2.2 06:27:11 10° NNW 06:32:47 63° WSW 06:38:20 10° S
Cosmos 2237 Rocket 2.8 06:28:50 10° SW 06:33:59 36° WNW 06:39:12 10° N
METEOR-M 4.1 06:36:00 10° N 06:41:18 69° WNW 06:46:35 10° SSW
